Content
SEND FEEDBACK

Daily
Averages
Monthly
Summary
Canada

MONTREAL, QUEBEC


Home > North America > Canada > Quebec
Elevation: 35 meters     Latitude: 45 28N     Longitude: 073 45W

WEATHER
 
SELECT A DAY
Number of Records: 198,461;   Date Range: 1/1/95 - 8/20/14
 
SHARE

PRINT THIS DATA

[ ← Previous Day ]
WEATHER ALMANAC - 7 JANUARY, 2013
[ Next Day → ]
[ °F ]   °C
Weather ElementAverageHighLow
Temperature-10.9 °C-6 °C (10:00 pm)-14 °C (10:00 am)
Dewpoint-15.9 °C-9 °C (11:00 pm)-20 °C (11:00 am)
Humidity69.1 %86 % (2:00 am)39 % (1:00 pm)
Wind Speed12.9 km/h22.2 km/h (8:00 pm)
Wind Gust31.5 km/h (10:00 pm)
Weather ElementAverage
Visibility25.6 km
Wind DirectionESE (115.7 °)

Weather ElementTotal
Precipitation---
Heating Degree Days28.3 (Base 18.3)
Averaged from 35 records on 7 January, 2013
WEATHER CONDITIONS BREAKOUT
WIND DIRECTION BREAKOUT
WEATHER BY HOUR - 7 JANUARY, 2013
[ °F ]   °C
Local TimeTemperatureDewpointHumidityBarometerVisibilityWind DirectionWind SpeedGust SpeedPrecipitationEventsConditions
1:00 AM-9.4 °C-12.2 °C73 %1020 hPa24.1 kmNorth (10°)14.8 km/hSnowLight Snow
1:00 AM-9 °C-12 °C79 %1020 hPa24.1 kmNorth (10°)16.7 km/hSnowLight Snow
1:25 AM-9 °C-17.8 °C24.1 kmNorth (10°)16.7 km/hSnowLow Drifting Snow
2:00 AM-10 °C-12 °C86 %1021.7 hPa24.1 kmNorth (350°)7.4 km/hSnowLight Snow
3:00 AM-9 °C-12 °C79 %1023 hPa24.1 kmNorth (350°)13 km/hSnowLight Snow
4:00 AM-10 °C-15 °C67 %1024 hPa24.1 kmNorth (10°)20.4 km/hSnowLight Snow
5:00 AM-11 °C-17 °C62 %1025.1 hPa24.1 kmNNE (30°)18.5 km/hSnowLight Snow
6:00 AM-12 °C-18 °C62 %1026.4 hPa24.1 kmNNE (20°)14.8 km/hSnowLight Snow
7:00 AM-12 °C-18 °C62 %1027.8 hPa24.1 kmNNE (30°)11.1 km/hSnowLight Snow
7:00 AM-12.2 °C-18.3 °C47 %1027.8 hPa24.1 kmNNE (20°)13 km/hSnowLight Snow
8:00 AM-13 °C-19 °C62 %1029.1 hPa24.1 kmNE (50°)14.8 km/hSnowLight Snow
9:00 AM-13 °C-19 °C62 %1029.8 hPa24.1 kmENE (60°)13 km/hSnowLight Snow
10:00 AM-14 °C-19 °C67 %1030.8 hPa24.1 kmENE (70°)11.1 km/hSnowLight Snow
11:00 AM-14 °C-20 °C61 %1031.2 hPa24.1 kmNE (40°)5.6 km/hSnowLight Snow
11:43 AM-14 °C-17.8 °C24.1 kmNNE (30°)7.4 km/hMostly Cloudy
12:00 PM-13 °C-20 °C57 %1030.5 hPa24.1 kmNE (40°)5.6 km/hMostly Cloudy
1:00 PM-12 °C-19 °C57 %1029.5 hPa24.1 kmNE (40°)3.7 km/hMostly Cloudy
1:00 PM-11.7 °C-18.9 °C39 %1029.5 hPa24.1 kmNE (40°)3.7 km/hPartly Cloudy
2:00 PM-12 °C-17 °C67 %1029.8 hPa24.1 kmWest (280°)3.7 km/hPartly Cloudy
2:33 PM-11 °C-17.8 °C24.1 kmSSE (160°)7.4 km/hMostly Cloudy
2:39 PM-11 °C-17.8 °C24.1 kmSW (220°)5.6 km/hSnowLight Snow
3:00 PM-11 °C-14 °C79 %1029.1 hPa24.1 kmSSW (200°)11.1 km/hSnowLight Snow
4:00 PM-12 °C-15 °C79 %1029.1 hPa24.1 kmSE (130°)16.7 km/hSnowLight Snow
4:31 PM-13 °C-17.8 °C48.3 kmSSE (150°)14.8 km/hOvercast
5:00 PM-12 °C-15 °C79 %1029.1 hPa48.3 kmSE (140°)9.3 km/hMostly Cloudy
5:21 PM-12 °C-17.8 °C24.1 kmSE (140°)13 km/hMostly Cloudy
6:00 PM-11 °C-14 °C79 %1027.8 hPa24.1 kmSE (140°)13 km/hOvercast
6:22 PM-11 °C-17.8 °C24.1 kmSE (140°)18.5 km/hSnowLight Snow
7:00 PM-10 °C-12.8 °C70 %1026.8 hPa24.1 kmSSE (150°)13 km/hSnowLight Snow
7:00 PM-10 °C-13 °C79 %1026.8 hPa24.1 kmSSE (150°)13 km/hOvercast
8:00 PM-10 °C-13 °C79 %1025.4 hPa24.1 kmSSE (150°)22.2 km/hSnowLight Snow
9:00 PM-9 °C-12 °C79 %1024 hPa24.1 kmSouth (170°)20.4 km/hSnowLight Snow
9:33 PM-8 °C-17.8 °C24.1 kmSouth (180°)22.2 km/hOvercast
10:00 PM-6 °C-10 °C74 %1023 hPa24.1 kmSouth (180°)22.2 km/h31.5 km/hSnowLow Drifting Snow
11:00 PM-6 °C-9 °C80 %1022 hPa24.1 kmSSE (160°)13 km/hOvercast
Hourly data recorded from CYUL, located 0 kilometers away from Montreal, Quebec







STORIES FROM OUR PARTNERS